Location: Caltech
(34.1382°N, 118.1253°W)
Time: 19:56:00
(UTC-08:00)

Aureole 3 Rocket - Visible Passes

Search period start: 19 February 2017 00:00
Search period end: 01 March 2017 00:00
Orbit: 399 x 1745 km, 82.5° (Epoch: 19 February)

Date Brightness Start Highest point End Pass type
(mag) Time Alt. Az. Time Alt. Az. Time Alt. Az.
19 Feb 5.4 18:55:27 10° NNW 19:03:24 64° W 19:13:15 10° S visible
20 Feb 5.0 18:02:26 10° N 18:10:37 70° E 18:20:40 10° SSE visible
20 Feb 6.9 19:51:15 10° NW 19:57:46 25° W 20:05:14 10° SW visible
21 Feb 6.3 06:04:46 10° E 06:05:49 11° E 06:06:55 10° ENE visible
21 Feb 5.9 18:57:07 10° NNW 19:05:10 51° W 19:14:48 10° SSW visible
22 Feb 5.1 18:03:53 10° N 18:12:25 86° E 18:22:41 10° S visible
22 Feb 7.3 19:53:30 10° NW 19:59:21 20° W 20:05:50 10° SW visible
23 Feb 6.4 18:58:54 10° NNW 19:06:53 41° W 19:16:09 10° SSW visible
24 Feb 5.4 18:05:26 10° N 18:14:13 78° W 18:24:32 10° S visible
24 Feb 7.7 19:56:09 10° NW 20:00:52 15° W 20:05:56 10° WSW visible
25 Feb 6.8 19:00:50 10° NNW 19:08:35 33° W 19:17:16 10° SW visible
26 Feb 5.8 18:07:06 10° NNW 18:16:02 64° W 18:26:11 10° S visible
26 Feb 8.0 19:59:48 10° WNW 20:02:20 11° WNW 20:04:57 10° W visible
27 Feb 7.2 19:02:57 10° NNW 19:10:13 27° W 19:18:08 10° SW visible
28 Feb 6.4 05:14:42 10° ESE 05:16:57 15° E 05:19:31 10° NE visible
28 Feb 6.2 18:08:52 10° NNW 18:17:48 52° W 18:27:38 10° SSW visible
